Probability
0 0 0 0 0 0 1 1 2 3 3 4 5 4 5 8 12 12 10 9 11 14 16 17 16 14 12 11 11 13 13 12 9 6 4 4 5 4 4 5 7 8 9 10
0 0 0 0 0 0 1 2 2 3 3 5 6 5 6 10 13 12 11 12 14 16 18 19 19 17 15 13 13 13 12 9 6 5 4 5 5 5 4 4 6 7 8 8
0 0 0 0 1 1 2 2 2 3 4 6 7 7 8 10 12 12 14 18 19 18 18 19 20 19 17 15 14 13 11 6 4 4 5 5 5 5 5 5 7 8 8 8
0 0 0 0 1 2 2 2 2 3 4 6 8 8 8 9 9 10 15 20 21 20 18 18 19 17 15 14 14 12 9 5 2 3 5 5 5 5 6 8 10 10 10 9
0 0 0 0 1 1 2 3 3 3 4 6 7 6 8 8 7 8 11 17 20 20 17 17 17 16 15 14 12 9 7 5 3 2 3 4 6 6 8 10 11 11 10 10
0 0 0 0 1 1 2 3 3 4 4 5 5 7 9 10 9 8 10 15 19 19 17 17 16 16 15 14 10 6 5 5 5 4 4 6 8 9 9 9 9 8 8 9
0 0 0 0 1 1 2 2 3 4 3 4 6 9 12 14 13 13 14 18 21 22 22 20 17 16 16 13 9 7 7 8 9 7 6 7 9 11 10 8 6 6 6 7
0 0 0 1 1 2 3 2 2 3 4 5 8 12 15 17 18 18 20 23 25 26 27 25 21 19 18 15 12 11 11 12 12 10 8 8 8 10 9 7 6 6 6 6
1 1 1 2 3 3 3 2 1 3 5 7 9 13 16 19 21 22 25 28 29 27 27 27 25 22 21 17 15 14 14 14 13 12 10 9 8 8 8 7 6 6 6 6
2 2 2 2 3 3 3 1 1 2 4 6 9 12 16 19 21 23 26 29 29 28 28 28 25 23 22 19 16 15 14 14 13 12 11 10 9 8 7 7 6 6 6 6
4 4 3 2 1 2 2 1 1 2 3 5 8 11 13 15 17 20 24 25 26 27 28 27 25 22 21 19 16 14 13 13 12 12 11 11 10 9 7 6 6 6 6 6
5 4 3 2 1 1 1 2 3 3 4 5 7 8 9 10 13 16 18 18 21 24 26 25 24 21 19 17 15 13 11 11 11 11 11 12 11 9 7 5 4 4 3 3
5 5 4 4 3 1 2 3 5 5 4 5 6 7 7 9 10 12 13 13 15 19 22 22 20 18 16 15 14 12 10 10 10 11 11 11 10 9 8 7 5 4 2 1
4 5 5 5 4 2 2 4 6 6 6 6 7 7 9 9 10 10 9 9 10 12 16 18 16 14 13 13 12 11 10 10 10 10 10 9 8 8 8 7 7 5 2 1
3 3 4 3 2 1 1 3 4 5 8 9 9 9 9 9 8 7 6 6 6 7 11 14 13 12 11 10 10 11 10 10 10 9 9 7 7 6 6 5 4 3 2 2
1 1 1 1 0 1 1 1 1 4 8 10 9 9 8 6 4 3 3 4 5 7 9 11 12 12 11 10 9 9 10 9 9 8 7 7 6 5 4 3 2 1 1 1
0 0 0 0 0 1 2 1 1 4 8 8 7 5 4 2 1 1 1 4 6 8 8 9 10 11 12 10 8 8 7 6 6 6 6 6 6 5 4 4 3 2 1 1
0 0 0 0 0 1 2 3 4 6 7 6 4 2 1 0 0 0 1 4 6 7 7 6 8 10 10 10 8 7 6 4 4 4 5 5 5 4 4 4 4 3 2 2
2 1 1 1 0 0 1 3 5 6 6 3 1 1 2 1 1 2 3 5 6 6 7 7 7 8 8 8 7 6 5 4 3 3 3 2 2 2 2 2 2 1 1 2
4 4 3 2 1 0 1 3 5 5 3 1 1 2 3 3 3 4 6 6 6 6 6 7 7 7 7 6 6 6 4 3 3 3 2 1 0 0 0 0 0 0 0 1
4 5 4 3 1 0 1 2 3 2 1 1 1 2 3 3 4 6 6 6 6 5 5 5 6 6 6 6 5 5 4 3 3 3 2 2 1 0 0 0 0 0 0 0
3 4 5 3 2 1 0 1 2 2 2 2 2 3 3 4 5 5 5 4 4 4 3 3 4 5 5 5 5 4 3 3 3 2 3 3 1 1 1 0 0 0 0 0
2 3 4 3 2 2 2 1 2 3 3 3 3 4 4 5 4 4 3 3 3 3 3 3 2 2 2 4 5 5 4 3 3 3 3 3 3 2 2 1 0 0 0 0
1 2 3 3 3 4 5 4 3 3 3 3 3 4 5 5 4 2 2 2 2 2 2 2 1 0 1 3 5 6 5 4 4 4 3 3 3 3 3 2 1 0 0 0
1 1 2 3 3 5 6 5 4 3 3 2 2 3 4 4 2 1 0 1 1 1 1 1 0 0 2 3 4 5 5 4 4 4 4 3 3 3 3 3 2 1 0 0
1 2 3 3 2 3 4 5 5 3 1 1 1 3 3 2 1 0 0 0 0 0 0 0 0 1 3 5 4 4 4 4 4 4 3 3 3 3 3 3 3 2 1 1
2 3 4 3 1 1 2 4 4 3 1 1 2 3 3 1 0 0 0 0 0 1 1 1 0 1 4 5 4 3 3 3 3 3 3 3 3 3 3 3 3 3 2 2
Wind_Speed
8 6 7 9 10 11 12 12 11 8 7 5 3 3 4 5 6 7 7 7 6 6 5 4 4 3 3 2 2 2 2 2 2 1 1 1 2 1 1 1 1 1 1 1
9 8 10 11 10 11 12 12 12 10 8 2 2 3 4 5 6 7 7 7 6 6 5 4 4 4 3 3 3 2 2 2 2 2 2 2 2 2 2 1 1 1 1 1
10 8 10 13 11 12 11 11 11 11 5 3 3 3 4 5 6 6 6 6 6 6 5 4 4 4 4 3 3 3 3 2 2 2 2 2 3 2 2 2 2 2 2 2
9 8 13 5 2 6 9 8 8 6 3 4 3 3 3 4 5 5 5 6 5 5 5 5 5 4 4 4 3 3 3 2 2 3 3 3 3 3 3 3 3 3 3 3
9 12 11 5 3 4 7 6 3 3 3 3 3 4 4 4 4 4 4 4 4 4 4 4 4 4 4 4 3 3 3 2 3 3 3 3 3 3 3 3 3 4 3 3
9 12 11 3 2 1 5 6 1 2 3 4 6 6 4 4 3 3 3 4 4 4 4 4 3 3 3 3 3 2 2 2 3 3 4 4 4 4 4 4 4 4 3 4
11 12 7 3 2 4 7 1 2 1 3 4 4 2 4 4 3 3 3 4 4 4 4 3 3 3 3 3 2 2 2 3 2 2 3 3 3 4 4 4 4 4 3 4
9 11 5 4 2 2 3 3 1 0 2 2 2 2 3 3 3 3 3 3 4 3 3 3 3 3 2 1 1 1 2 2 2 3 3 2 3 4 4 4 5 4 4 4
4 2 4 2 1 2 2 1 1 1 0 1 2 2 2 2 2 3 2 2 3 3 4 3 3 2 2 1 1 1 2 2 2 3 3 3 4 4 4 4 5 4 4 4
3 2 1 1 1 1 1 1 1 0 0 2 2 2 2 2 2 2 2 2 3 3 3 3 2 2 1 1 0 1 1 2 2 2 3 3 3 4 4 4 4 4 4 4
4 2 1 2 1 1 1 1 1 0 0 1 2 2 2 2 1 1 1 1 2 2 3 2 2 2 1 1 0 1 1 2 2 2 2 2 3 3 4 3 4 5 5 4
4 2 3 1 1 1 1 1 0 0 1 1 1 2 2 2 1 1 1 1 1 2 2 1 1 2 1 0 0 1 1 2 2 2 2 2 2 2 1 3 2 4 5 5
2 2 2 1 1 1 1 1 1 1 1 1 1 2 2 2 2 1 1 1 1 1 1 1 1 1 1 0 0 1 2 2 2 2 2 2 2 2 2 1 2 3 4 4
1 1 1 1 1 0 1 2 2 2 2 2 2 3 3 3 2 1 1 0 0 0 1 1 1 1 0 1 1 2 3 2 3 2 2 2 2 3 3 3 3 2 3 4
2 2 1 2 2 2 2 3 3 3 3 3 3 3 3 2 2 1 1 1 1 1 0 0 0 1 1 1 2 2 3 2 2 2 2 2 2 2 3 3 3 3 3 1
2 1 3 3 3 3 3 3 3 3 3 3 3 4 3 3 2 2 1 1 1 2 2 1 1 1 1 1 2 2 2 1 2 2 2 2 2 2 2 3 3 3 3 3
3 3 4 4 3 3 3 2 2 3 3 3 3 3 3 3 2 2 2 2 2 2 2 2 2 2 1 2 2 2 2 1 1 2 2 2 2 3 3 3 3 3 3 3
3 3 3 3 3 3 2 2 2 2 2 3 3 3 3 2 1 1 2 2 2 2 3 3 3 2 2 2 2 2 2 2 2 2 2 2 3 3 3 3 4 4 4 3
2 3 3 3 3 2 2 2 3 3 3 3 3 3 2 1 1 1 1 1 1 2 3 3 2 2 1 2 2 2 2 2 2 2 2 2 3 3 3 4 4 4 4 4
2 3 4 3 3 3 3 3 3 3 3 3 3 3 2 1 1 1 0 0 1 2 2 2 2 2 1 1 2 2 2 2 3 3 3 3 3 3 4 4 4 4 4 4
2 3 4 4 4 3 3 3 3 3 3 3 3 2 2 1 1 0 0 0 2 2 2 1 2 1 2 2 3 2 2 3 3 3 3 3 3 4 4 4 4 4 4 4
2 2 4 4 4 4 3 3 3 3 3 3 3 2 2 2 1 0 0 1 1 1 2 2 1 3 4 5 3 2 3 3 3 3 3 3 4 4 4 4 4 4 4 4
2 2 2 3 4 4 3 3 3 3 2 2 2 2 1 0 1 0 0 1 0 1 2 2 4 3 5 4 2 2 3 3 3 3 3 3 4 4 4 5 4 4 4 4
3 3 2 3 3 3 3 2 2 2 2 2 2 1 1 1 1 0 1 2 1 2 1 2 1 4 6 3 2 2 3 3 3 3 3 3 3 3 4 4 4 4 4 4
3 3 3 2 2 2 2 2 2 2 2 2 2 2 1 0 0 1 1 1 0 2 1 0 3 5 4 2 2 3 3 3 4 4 4 4 4 4 4 4 4 4 4 4
2 2 2 1 1 1 1 1 1 1 1 1 1 1 0 1 1 1 0 0 0 2 2 1 2 3 2 2 3 4 4 3 3 3 4 4 4 4 4 4 5 4 4 3
2 2 2 1 1 1 1 1 1 0 1 1 1 0 0 0 0 0 1 1 1 2 2 2 2 3 3 3 3 3 3 3 3 4 4 4 4 4 3 4 3 3 3 3
Wind_Direction
261 267 257 243 234 228 242 259 270 272 266 259 216 187 167 169 164 164 163 166 163 167 165 172 175 177 180 180 183 186 199 209 206 216 214 233 237 230 228 242 238 242 262 261
243 237 243 244 244 239 240 250 256 261 264 256 167 162 166 175 175 174 174 174 171 170 171 180 185 190 189 192 191 191 199 210 207 214 221 227 230 222 223 238 254 239 250 257
248 237 242 239 242 247 246 249 257 262 264 177 182 188 190 183 185 183 178 176 177 181 184 188 192 192 193 189 192 193 200 210 213 219 223 228 234 229 229 235 243 246 245 248
252 240 245 255 283 264 260 257 264 267 251 216 196 178 186 185 180 178 175 175 178 182 183 181 180 184 185 181 186 193 206 217 219 221 226 231 234 232 234 236 239 243 245 246
249 244 242 218 207 237 246 246 261 259 219 188 154 172 172 162 167 172 180 178 174 176 171 164 169 173 178 183 183 198 214 227 231 231 234 234 235 238 239 237 237 238 239 240
243 252 253 233 129 226 250 230 156 224 199 188 193 217 150 137 159 169 169 166 169 168 162 158 160 163 172 177 188 211 226 237 238 238 240 240 239 242 243 239 239 243 242 248
242 248 248 76 119 212 237 337 58 221 206 199 209 339 87 129 149 156 158 157 158 158 156 155 160 168 178 186 202 224 232 238 239 245 246 242 244 247 247 247 249 251 250 249
238 245 237 85 167 238 8 29 29 283 210 183 144 109 109 117 134 146 146 149 153 155 148 146 157 167 168 183 219 225 230 236 245 252 258 247 243 248 248 249 246 243 242 248
272 307 57 74 23 31 4 1 355 332 263 167 167 152 136 133 132 138 139 138 147 150 148 148 153 157 167 177 231 231 236 247 259 266 267 261 246 241 239 236 246 250 248 248
238 221 96 78 36 20 2 359 346 330 186 177 172 158 155 143 137 140 136 140 159 158 150 145 144 143 153 144 251 235 243 255 255 257 262 259 259 251 252 252 255 256 256 258
230 222 217 206 246 345 357 7 26 74 141 165 158 166 164 153 144 145 143 157 170 161 150 145 131 126 127 131 219 258 266 270 267 257 262 268 262 266 264 266 270 272 273 268
247 211 252 236 316 306 282 269 277 133 156 182 167 172 164 149 141 150 142 141 142 148 143 139 131 114 89 77 158 268 267 277 281 278 266 264 268 271 251 261 258 253 265 275
308 293 306 261 265 283 247 229 186 158 160 161 158 152 138 125 124 119 118 124 137 147 157 157 148 119 97 294 242 254 273 284 284 287 286 287 283 282 282 256 233 238 236 243
289 263 219 199 204 137 124 114 104 102 106 109 119 122 119 117 121 130 131 286 239 180 176 164 147 88 31 295 276 271 273 280 280 280 289 295 298 295 290 290 284 273 223 205
232 256 213 171 167 144 142 138 126 116 106 100 108 111 110 111 113 95 40 12 30 35 60 108 39 16 2 312 284 269 270 281 297 304 296 296 295 290 290 292 293 294 296 221
236 211 167 167 166 160 164 160 142 129 118 109 105 105 107 103 91 70 48 40 36 28 12 353 343 347 345 323 303 281 287 351 309 294 294 295 294 298 300 298 292 291 294 301
201 190 179 176 172 170 172 172 158 149 135 124 115 112 111 103 88 70 53 41 29 22 2 347 339 348 328 311 302 310 321 320 272 274 292 307 306 303 304 298 295 292 290 304
221 219 215 206 198 184 174 167 158 146 135 126 126 124 116 108 90 74 55 44 36 16 1 355 349 337 332 334 330 324 309 300 302 309 312 312 308 301 295 292 292 294 297 285
212 216 216 212 213 197 174 162 152 140 135 141 141 132 125 111 93 83 79 69 38 7 0 359 349 303 332 7 332 278 288 299 301 302 302 299 284 291 297 299 298 298 299 300
198 193 195 193 183 173 157 152 150 144 147 150 147 141 134 124 118 121 108 27 7 4 3 346 315 330 338 6 319 300 300 298 299 299 297 297 303 304 300 298 299 301 300 296
185 179 178 172 161 155 150 152 154 150 149 152 149 143 133 124 130 172 251 356 50 26 344 302 289 327 341 337 285 292 301 303 304 305 304 303 305 305 306 309 309 307 304 302
158 157 155 151 151 146 143 144 142 140 142 145 144 138 135 144 160 153 10 329 26 13 297 297 337 25 347 305 292 310 309 306 306 304 303 303 302 301 304 307 306 308 308 311
121 118 133 142 143 139 137 138 143 149 154 154 147 147 161 278 290 282 21 38 355 337 309 355 20 358 304 283 304 309 308 309 305 300 298 299 298 299 300 300 302 305 309 310
110 107 102 112 124 133 133 129 132 139 145 147 143 153 203 213 216 325 35 86 15 303 330 26 325 296 277 275 293 300 302 303 300 300 306 305 302 303 304 303 303 303 304 306
108 113 114 125 137 129 123 133 145 156 169 153 155 172 217 294 334 26 25 60 59 269 277 224 255 274 277 306 302 297 295 305 313 312 308 305 305 303 302 303 305 305 307 308
118 124 116 132 96 131 164 166 160 171 177 164 162 156 136 114 118 134 180 186 279 287 293 288 279 270 293 301 299 301 305 303 287 287 300 299 299 300 300 302 302 299 299 304
146 143 149 148 152 161 161 152 140 153 167 157 145 135 115 102 46 12 306 303 295 292 303 307 308 311 306 298 297 303 308 310 310 307 304 302 302 301 299 297 296 297 299 308